PE1EDR Weather Reports


time (UTC)temp
C
wind
direction
speed
KPH
gust
KPH
rain 1hr
cm
rain 24hr
cm
rain mn
cm
humidity
%
barometer
mb
20260506093813 13 63 6.4 17.7 0.00 0.23 0.03 61 1007.7
20260506093314 13 94 4.8 17.7 0.00 0.23 0.03 62 1007.6
20260506092809 13 79 6.4 19.3 0.00 0.23 0.00 66 1007.7
20260506092316 13 42 6.4 19.3 0.00 0.23 0.00 68 1007.7
20260506091814 13 30 6.4 17.7 0.00 0.23 0.00 68 1007.6
20260506090812 13 59 6.4 12.9 0.00 0.23 0.00 70 1007.6
20260506090325 13 67 6.4 0.0 0.00 0.00 0.00 69 1007.6
20260506083830 13 63 8.0 19.3 0.00 0.23 0.05 73 1007.5
20260506083349 13 59 6.4 19.3 0.00 0.23 0.05 74 1007.5
20260506082836 13 36 6.4 27.4 0.00 0.23 0.05 77 1007.5
20260506081822 12 86 8.0 19.3 0.00 0.23 0.05 78 1007.4
20260506081333 12 66 8.0 19.3 0.00 0.23 0.00 77 1007.4
20260506080758 12 71 6.4 12.9 0.00 0.23 0.00 79 1007.4
20260506080326 12 18 8.0 0.0 0.00 0.00 0.00 79 1007.4
20260506071613 12 30 6.4 16.1 0.00 0.23 0.00 80 1007.2
20260506071117 12 53 8.0 25.7 0.00 0.23 0.00 81 1007.2
20260506070611 12 86 8.0 25.7 0.00 0.23 0.00 82 1007.2
20260506070129 12 130 8.0 0.0 0.00 0.00 0.00 84 1007.2
20260506061949 10 43 4.8 17.7 0.00 0.23 0.00 89 1007.0
20260506060959 10 57 8.0 0.0 0.00 0.00 0.00 89 1007.0